Time,TemperatureF,DewpointF,PressureIn,WindDirection,WindDirectionDegrees,WindSpeedMPH,WindSpeedGustMPH,Humidity,HourlyPrecipIn,Conditions,Clouds,dailyrainin,SoftwareType,DateUTC
2013-01-12 00:05:00,17.4,-5.0,30.00,NNE,33,5.0,5.0,36,0.00,,,0.00,weatherlink.com 1.10,2013-01-12 07:05:00,
2013-01-12 00:20:00,16.4,-5.0,30.00,NNE,30,2.0,4.0,38,0.00,,,0.00,weatherlink.com 1.10,2013-01-12 07:20:00,
2013-01-12 00:35:00,15.8,-5.0,30.00,NW,312,5.0,6.0,40,0.00,,,0.00,weatherlink.com 1.10,2013-01-12 07:35:00,
2013-01-12 00:50:00,15.8,-5.0,30.01,NW,304,4.0,6.0,40,0.00,,,0.00,weatherlink.com 1.10,2013-01-12 07:50:00,
2013-01-12 01:05:00,17.2,-4.0,30.01,NNW,341,6.0,8.0,39,0.00,,,0.00,weatherlink.com 1.10,2013-01-12 08:05:00,
2013-01-12 01:20:00,17.4,-4.0,30.00,NNW,336,5.0,9.0,38,0.00,,,0.00,weatherlink.com 1.10,2013-01-12 08:20:00,
2013-01-12 01:35:00,16.7,-4.0,30.00,NW,322,4.0,7.0,39,0.00,,,0.00,weatherlink.com 1.10,2013-01-12 08:35:00,
2013-01-12 01:50:00,15.4,-5.0,30.00,NE,52,4.0,8.0,41,0.00,,,0.00,weatherlink.com 1.10,2013-01-12 08:50:00,
2013-01-12 02:05:00,16.7,-3.0,30.00,North,355,5.0,11.0,41,0.00,,,0.00,weatherlink.com 1.10,2013-01-12 09:05:00,
2013-01-12 02:20:00,15.5,-3.0,30.01,North,5,5.0,7.0,43,0.00,,,0.00,weatherlink.com 1.10,2013-01-12 09:20:00,
2013-01-12 02:35:00,15.4,-4.0,30.01,NNE,19,4.0,7.0,43,0.00,,,0.00,weatherlink.com 1.10,2013-01-12 09:35:00,
2013-01-12 02:51:00,15.7,-3.0,30.01,NE,39,4.0,7.0,43,0.00,,,0.00,weatherlink.com 1.10,2013-01-12 09:51:00,
2013-01-12 03:06:00,15.0,-3.0,30.02,North,9,5.0,7.0,44,0.00,,,0.00,weatherlink.com 1.10,2013-01-12 10:06:00,
2013-01-12 03:21:00,15.6,-3.0,30.01,NNW,337,8.0,8.0,44,0.00,,,0.00,weatherlink.com 1.10,2013-01-12 10:21:00,
2013-01-12 03:36:00,15.6,-3.0,30.01,NNW,338,10.0,14.0,43,0.00,,,0.00,weatherlink.com 1.10,2013-01-12 10:36:00,
2013-01-12 03:51:00,15.2,-3.0,30.01,NNW,342,8.0,13.0,44,0.00,,,0.00,weatherlink.com 1.10,2013-01-12 10:51:00,
2013-01-12 04:06:00,14.9,-3.0,30.00,NNW,331,8.0,14.0,45,0.00,,,0.00,weatherlink.com 1.10,2013-01-12 11:06:00,
2013-01-12 04:21:00,14.8,-3.0,30.00,NNW,330,6.0,14.0,45,0.00,,,0.00,weatherlink.com 1.10,2013-01-12 11:21:00,
2013-01-12 04:36:00,15.0,-3.0,30.01,North,355,8.0,11.0,45,0.00,,,0.00,weatherlink.com 1.10,2013-01-12 11:36:00,
2013-01-12 04:51:00,14.8,-3.0,30.01,North,360,6.0,11.0,45,0.00,,,0.00,weatherlink.com 1.10,2013-01-12 11:51:00,
2013-01-12 05:06:00,14.7,-3.0,30.01,NNW,340,9.0,12.0,45,0.00,,,0.00,weatherlink.com 1.10,2013-01-12 12:06:00,
2013-01-12 05:21:00,14.2,-3.0,30.02,NNW,327,11.0,13.0,46,0.00,,,0.00,weatherlink.com 1.10,2013-01-12 12:21:00,
2013-01-12 05:36:00,13.4,-4.0,30.03,NW,322,7.0,15.0,47,0.00,,,0.00,weatherlink.com 1.10,2013-01-12 12:36:00,
2013-01-12 05:51:00,13.4,-3.0,30.04,NNW,336,7.0,12.0,48,0.00,,,0.00,weatherlink.com 1.10,2013-01-12 12:51:00,
2013-01-12 06:07:00,13.6,-3.0,30.05,North,350,7.0,11.0,48,0.00,,,0.00,weatherlink.com 1.10,2013-01-12 13:07:00,
2013-01-12 06:22:00,13.6,-3.0,30.06,North,355,7.0,11.0,47,0.00,,,0.00,weatherlink.com 1.10,2013-01-12 13:22:00,
2013-01-12 06:37:00,12.7,-3.0,30.07,NNW,338,7.0,14.0,49,0.00,,,0.00,weatherlink.com 1.10,2013-01-12 13:37:00,
2013-01-12 06:52:00,12.2,-4.0,30.08,NNW,348,9.0,12.0,49,0.00,,,0.00,weatherlink.com 1.10,2013-01-12 13:52:00,
2013-01-12 07:07:00,11.1,-4.0,30.09,NE,42,4.0,11.0,51,0.00,,,0.00,weatherlink.com 1.10,2013-01-12 14:07:00,
2013-01-12 07:22:00,10.0,-4.0,30.10,NNE,27,4.0,9.0,54,0.00,,,0.00,weatherlink.com 1.10,2013-01-12 14:22:00,
2013-01-12 07:37:00,11.1,-3.0,30.11,North,355,7.0,11.0,53,0.00,,,0.00,weatherlink.com 1.10,2013-01-12 14:37:00,
2013-01-12 07:52:00,12.2,-3.0,30.12,North,5,8.0,12.0,50,0.00,,,0.00,weatherlink.com 1.10,2013-01-12 14:52:00,
2013-01-12 08:07:00,13.3,-3.0,30.12,North,355,4.0,13.0,48,0.00,,,0.00,weatherlink.com 1.10,2013-01-12 15:07:00,
2013-01-12 08:22:00,14.1,-3.0,30.14,NNW,328,8.0,11.0,46,0.00,,,0.00,weatherlink.com 1.10,2013-01-12 15:22:00,
2013-01-12 08:37:00,14.4,-4.0,30.14,NNW,348,5.0,12.0,45,0.00,,,0.00,weatherlink.com 1.10,2013-01-12 15:37:00,
2013-01-12 08:52:00,15.2,-1.0,30.15,North,360,7.0,16.0,49,0.00,,,0.00,weatherlink.com 1.10,2013-01-12 15:52:00,
2013-01-12 09:07:00,17.0,-3.0,30.16,North,355,7.0,13.0,42,0.00,,,0.00,weatherlink.com 1.10,2013-01-12 16:07:00,
2013-01-12 09:22:00,17.9,-2.0,30.17,NNW,337,6.0,10.0,41,0.00,,,0.00,weatherlink.com 1.10,2013-01-12 16:22:00,
2013-01-12 09:38:00,18.7,-3.0,30.17,NNE,30,7.0,9.0,39,0.00,,,0.00,weatherlink.com 1.10,2013-01-12 16:38:00,
2013-01-12 09:53:00,19.4,-2.0,30.17,NE,46,5.0,9.0,39,0.00,,,0.00,weatherlink.com 1.10,2013-01-12 16:53:00,
2013-01-12 10:08:00,20.0,-2.0,30.16,NE,34,7.0,10.0,38,0.00,,,0.00,weatherlink.com 1.10,2013-01-12 17:08:00,
2013-01-12 10:23:00,21.2,-2.0,30.15,NNE,17,7.0,9.0,36,0.00,,,0.00,weatherlink.com 1.10,2013-01-12 17:23:00,
2013-01-12 10:38:00,21.5,-1.0,30.14,NE,42,6.0,7.0,37,0.00,,,0.00,weatherlink.com 1.10,2013-01-12 17:38:00,
2013-01-12 10:53:00,22.7,-1.0,30.14,NNE,13,2.0,8.0,35,0.00,,,0.00,weatherlink.com 1.10,2013-01-12 17:53:00,
2013-01-12 11:08:00,23.9,-1.0,30.13,NE,40,0.0,6.0,34,0.00,,,0.00,weatherlink.com 1.10,2013-01-12 18:08:00,
2013-01-12 11:23:00,24.5,-1.0,30.12,NE,41,0.0,5.0,33,0.00,,,0.00,weatherlink.com 1.10,2013-01-12 18:23:00,
2013-01-12 11:38:00,26.1,-1.0,30.10,NE,46,0.0,4.0,31,0.00,,,0.00,weatherlink.com 1.10,2013-01-12 18:38:00,
2013-01-12 11:53:00,26.5,-1.0,30.10,ENE,61,1.0,5.0,30,0.00,,,0.00,weatherlink.com 1.10,2013-01-12 18:53:00,
2013-01-12 12:08:00,27.5,-2.0,30.09,SSW,200,0.0,6.0,28,0.00,,,0.00,weatherlink.com 1.10,2013-01-12 19:08:00,
2013-01-12 12:23:00,29.6,-1.0,30.08,South,171,4.0,5.0,27,0.00,,,0.00,weatherlink.com 1.10,2013-01-12 19:23:00,
2013-01-12 12:38:00,30.3,-3.0,30.06,South,186,5.0,10.0,24,0.00,,,0.00,weatherlink.com 1.10,2013-01-12 19:38:00,
2013-01-12 12:54:00,30.5,-3.0,30.06,South,178,2.0,7.0,24,0.00,,,0.00,weatherlink.com 1.10,2013-01-12 19:54:00,
2013-01-12 13:09:00,30.7,-2.0,30.06,SW,236,2.0,11.0,24,0.00,,,0.00,weatherlink.com 1.10,2013-01-12 20:09:00,
2013-01-12 13:24:00,30.6,-2.0,30.06,SW,234,13.0,13.0,24,0.00,,,0.00,weatherlink.com 1.10,2013-01-12 20:24:00,
2013-01-12 13:39:00,30.0,-3.0,30.06,NW,326,4.0,11.0,24,0.00,,,0.00,weatherlink.com 1.10,2013-01-12 20:39:00,
2013-01-12 13:54:00,29.6,-3.0,30.06,SSW,204,3.0,9.0,24,0.00,,,0.00,weatherlink.com 1.10,2013-01-12 20:54:00,
2013-01-12 14:09:00,30.1,-5.0,30.06,WSW,252,6.0,9.0,22,0.00,,,0.00,weatherlink.com 1.10,2013-01-12 21:09:00,
2013-01-12 14:24:00,30.6,-3.0,30.07,South,191,2.0,6.0,23,0.00,,,0.00,weatherlink.com 1.10,2013-01-12 21:24:00,
2013-01-12 14:39:00,30.3,-2.0,30.07,NW,304,11.0,18.0,25,0.00,,,0.00,weatherlink.com 1.10,2013-01-12 21:39:00,
2013-01-12 14:54:00,30.3,-2.0,30.08,NNW,333,7.0,16.0,25,0.00,,,0.00,weatherlink.com 1.10,2013-01-12 21:54:00,
2013-01-12 15:09:00,29.7,-2.0,30.09,WNW,302,14.0,19.0,26,0.00,,,0.00,weatherlink.com 1.10,2013-01-12 22:09:00,
2013-01-12 15:24:00,29.4,-3.0,30.09,WNW,288,10.0,16.0,25,0.00,,,0.00,weatherlink.com 1.10,2013-01-12 22:24:00,
2013-01-12 15:39:00,29.4,-3.0,30.09,WNW,298,15.0,20.0,24,0.00,,,0.00,weatherlink.com 1.10,2013-01-12 22:39:00,
2013-01-12 15:54:00,29.2,-3.0,30.10,WNW,301,10.0,19.0,25,0.00,,,0.00,weatherlink.com 1.10,2013-01-12 22:54:00,
2013-01-12 16:09:00,28.7,-5.0,30.10,NW,315,13.0,18.0,23,0.00,,,0.00,weatherlink.com 1.10,2013-01-12 23:09:00,
2013-01-12 16:25:00,28.7,-8.0,30.11,WNW,282,7.0,16.0,20,0.00,,,0.00,weatherlink.com 1.10,2013-01-12 23:25:00,
2013-01-12 16:40:00,28.5,-7.0,30.12,West,279,13.0,19.0,21,0.00,,,0.00,weatherlink.com 1.10,2013-01-12 23:40:00,
2013-01-12 16:55:00,28.0,-5.0,30.12,NW,315,10.0,16.0,24,0.00,,,0.00,weatherlink.com 1.10,2013-01-12 23:55:00,
2013-01-12 17:10:00,27.8,-6.0,30.12,WNW,296,10.0,13.0,23,0.00,,,0.00,weatherlink.com 1.10,2013-01-13 00:10:00,
2013-01-12 17:25:00,27.7,-7.0,30.13,NW,304,5.0,13.0,22,0.00,,,0.00,weatherlink.com 1.10,2013-01-13 00:25:00,
2013-01-12 17:40:00,27.4,-10.0,30.13,WNW,296,5.0,14.0,19,0.00,,,0.00,weatherlink.com 1.10,2013-01-13 00:40:00,
2013-01-12 17:55:00,27.0,-10.0,30.14,WNW,299,6.0,10.0,19,0.00,,,0.00,weatherlink.com 1.10,2013-01-13 00:55:00,
2013-01-12 18:10:00,26.7,-11.0,30.14,NW,322,4.0,8.0,19,0.00,,,0.00,weatherlink.com 1.10,2013-01-13 01:10:00,
2013-01-12 18:25:00,26.2,-10.0,30.14,NW,314,2.0,6.0,20,0.00,,,0.00,weatherlink.com 1.10,2013-01-13 01:25:00,
2013-01-12 18:40:00,25.4,-11.0,30.15,WNW,289,2.0,7.0,20,0.00,,,0.00,weatherlink.com 1.10,2013-01-13 01:40:00,
2013-01-12 18:55:00,24.9,-8.0,30.16,WNW,294,4.0,9.0,23,0.00,,,0.00,weatherlink.com 1.10,2013-01-13 01:55:00,
2013-01-12 19:10:00,24.6,-8.0,30.16,NW,306,4.0,9.0,24,0.00,,,0.00,weatherlink.com 1.10,2013-01-13 02:10:00,
2013-01-12 19:25:00,24.1,-7.0,30.17,NW,304,5.0,9.0,25,0.00,,,0.00,weatherlink.com 1.10,2013-01-13 02:25:00,
2013-01-12 19:40:00,23.6,-7.0,30.17,WNW,298,2.0,8.0,26,0.00,,,0.00,weatherlink.com 1.10,2013-01-13 02:40:00,
2013-01-12 19:56:00,22.1,-7.0,30.17,WNW,298,0.0,0.0,27,0.00,,,0.00,weatherlink.com 1.10,2013-01-13 02:56:00,
2013-01-12 20:11:00,21.8,-6.0,30.18,WNW,298,0.0,3.0,29,0.00,,,0.00,weatherlink.com 1.10,2013-01-13 03:11:00,
2013-01-12 20:26:00,20.8,-7.0,30.18,WNW,299,0.0,1.0,29,0.00,,,0.00,weatherlink.com 1.10,2013-01-13 03:26:00,
2013-01-12 20:41:00,20.0,-7.0,30.19,WNW,299,0.0,0.0,30,0.00,,,0.00,weatherlink.com 1.10,2013-01-13 03:41:00,
2013-01-12 20:56:00,19.3,-8.0,30.20,WNW,300,0.0,2.0,30,0.00,,,0.00,weatherlink.com 1.10,2013-01-13 03:56:00,
2013-01-12 21:11:00,18.2,-8.0,30.20,WNW,298,1.0,3.0,31,0.00,,,0.00,weatherlink.com 1.10,2013-01-13 04:11:00,
2013-01-12 21:26:00,17.8,-6.0,30.20,WNW,298,2.0,3.0,34,0.00,,,0.00,weatherlink.com 1.10,2013-01-13 04:26:00,
2013-01-12 21:41:00,17.8,-6.0,30.20,WNW,298,0.0,2.0,34,0.00,,,0.00,weatherlink.com 1.10,2013-01-13 04:41:00,
2013-01-12 21:56:00,18.2,-6.0,30.20,WNW,298,1.0,3.0,34,0.00,,,0.00,weatherlink.com 1.10,2013-01-13 04:56:00,
2013-01-12 22:11:00,17.3,-6.0,30.21,WNW,298,1.0,3.0,35,0.00,,,0.00,weatherlink.com 1.10,2013-01-13 05:11:00,
2013-01-12 22:26:00,17.3,-5.0,30.21,WNW,298,1.0,4.0,37,0.00,,,0.00,weatherlink.com 1.10,2013-01-13 05:26:00,
2013-01-12 22:41:00,17.0,-5.0,30.22,WNW,298,2.0,3.0,37,0.00,,,0.00,weatherlink.com 1.10,2013-01-13 05:41:00,
2013-01-12 22:56:00,16.6,-5.0,30.23,WNW,298,0.0,2.0,39,0.00,,,0.00,weatherlink.com 1.10,2013-01-13 05:56:00,
2013-01-12 23:12:00,16.4,-4.0,30.23,WNW,298,0.0,2.0,40,0.00,,,0.00,weatherlink.com 1.10,2013-01-13 06:12:00,
2013-01-12 23:27:00,15.9,-4.0,30.24,WNW,298,1.0,2.0,41,0.00,,,0.00,weatherlink.com 1.10,2013-01-13 06:27:00,
2013-01-12 23:42:00,15.2,-6.0,30.25,WNW,298,1.0,3.0,39,0.00,,,0.00,weatherlink.com 1.10,2013-01-13 06:42:00,
2013-01-12 23:57:00,12.6,-8.0,30.25,WNW,285,2.0,4.0,40,0.00,,,0.00,weatherlink.com 1.10,2013-01-13 06:57:00,